TimeCST,TemperatureF,Dew PointF,Humidity,Sea Level PressureIn,VisibilityMPH,Wind Direction,Wind SpeedMPH,Gust SpeedMPH,PrecipitationIn,Events,Conditions,WindDirDegrees,DateUTC
12:52 AM,39.9,35.1,83,30.02,10.0,SSW,12.7,-,N/A,,Overcast,210,2012-11-06 06:52:00
1:52 AM,39.2,35.6,87,29.94,10.0,South,13.8,-,N/A,,Overcast,190,2012-11-06 07:52:00
2:52 AM,39.9,35.1,83,29.96,10.0,SW,13.8,19.6,N/A,,Overcast,220,2012-11-06 08:52:00
3:52 AM,39.0,34.0,82,29.93,10.0,SW,11.5,-,N/A,,Partly Cloudy,230,2012-11-06 09:52:00
4:52 AM,37.9,34.0,86,29.93,10.0,West,11.5,-,N/A,,Clear,260,2012-11-06 10:52:00
5:12 AM,39.2,35.6,87,29.91,10.0,WNW,11.5,-,N/A,,Mostly Cloudy,290,2012-11-06 11:12:00
5:52 AM,43.0,37.9,82,29.94,10.0,NNW,17.3,-,N/A,,Partly Cloudy,330,2012-11-06 11:52:00
6:52 AM,42.1,37.0,82,29.97,10.0,NW,16.1,20.7,N/A,,Clear,310,2012-11-06 12:52:00
7:52 AM,42.8,33.8,70,29.98,10.0,NW,21.9,29.9,N/A,,Clear,320,2012-11-06 13:52:00
8:52 AM,45.0,33.1,63,30.02,10.0,NW,17.3,29.9,N/A,,Clear,320,2012-11-06 14:52:00
9:52 AM,46.9,34.0,61,30.02,10.0,NNW,18.4,25.3,N/A,,Clear,330,2012-11-06 15:52:00
10:52 AM,50.0,34.0,54,30.01,10.0,NNW,26.5,34.5,N/A,,Clear,330,2012-11-06 16:52:00
11:52 AM,51.1,33.1,50,29.99,10.0,NW,26.5,36.8,N/A,,Clear,320,2012-11-06 17:52:00
12:52 PM,53.1,33.1,47,29.98,10.0,NNW,28.8,38.0,N/A,,Clear,330,2012-11-06 18:52:00
1:52 PM,54.0,33.1,45,29.97,10.0,NW,26.5,38.0,N/A,,Scattered Clouds,320,2012-11-06 19:52:00
2:52 PM,54.0,33.1,45,29.98,10.0,NW,28.8,39.1,N/A,,Mostly Cloudy,320,2012-11-06 20:52:00
3:52 PM,54.0,32.0,43,29.99,10.0,NNW,26.5,33.4,N/A,,Partly Cloudy,340,2012-11-06 21:52:00
4:52 PM,51.1,32.0,48,30.01,10.0,NNW,23.0,29.9,N/A,,Clear,330,2012-11-06 22:52:00
5:52 PM,48.0,32.0,54,30.04,10.0,NNW,15.0,-,N/A,,Clear,340,2012-11-06 23:52:00
6:52 PM,46.9,32.0,56,30.06,10.0,NNW,12.7,-,N/A,,Clear,340,2012-11-07 00:52:00
7:52 PM,44.1,33.1,65,30.07,10.0,NW,11.5,-,N/A,,Clear,320,2012-11-07 01:52:00
8:52 PM,41.0,32.0,70,30.07,10.0,NW,8.1,-,N/A,,Clear,310,2012-11-07 02:52:00
9:52 PM,36.0,30.0,79,30.08,10.0,WNW,5.8,-,N/A,,Clear,290,2012-11-07 03:52:00
10:52 PM,37.9,30.0,73,30.09,10.0,NW,6.9,-,N/A,,Clear,310,2012-11-07 04:52:00
11:52 PM,37.0,30.9,79,30.11,10.0,NNW,8.1,-,N/A,,Clear,330,2012-11-07 05:52:00